パンスターズ-クリステンセン彗星

443P/PanSTARRS-Christensen (2005)

English version
Home page
Updated on May 29, 2022

---------------------------------------------------------------------

・ プロフィール

符号 443P/2005 N11

・ 軌道要素

                    Epoch = 2005 Dec. 16.0 TT
     T = 2005 Dec. 25.44585 TT        Peri. = 144.90028
     e = 0.2851533                    Node  = 109.03282 2000.0
     q = 2.9458904 AU                 Incl. =  19.89313
       a =  4.1210102 AU   n = 0.11781445   P =   8.37 years

・ 光度変化

        m1 = 13.0 + 5 logΔ + 10.0 log r

---------------------------------------------------------------------

軌道要素は、CBET 5117に掲載されたものです。
光度グラフはComet for Windowsで作成したものです。

---------------------------------------------------------------------

Copyright(C) Seiichi Yoshida (comet@aerith.net). All rights reserved.